When you browse on this site, cookies collect data to enhance your experience and personalize the content and advertising you see.
Visit our Privacy Policy to learn more. By continuing to use the site, you agree to this use of cookies and data.
  • In Czech Republic
  • List of Countries
  • For 7 days
  • Water Temperature
  • Satellite Maps
  • Weather Map
  • Weather Widgets
  • user-avatar
    Login

    Hourly Weather Maloe Kobyakovo

    Today, 19 February, Tuesday

    Time Temperature Precipitation Wind Pressure Humidity
    00:00 -9°C° 0 mm 2 mps 748 mmHg 90%
    01:00 -9°C° 0 mm 2 mps 748 mmHg 90%
    02:00 -9°C° 0 mm 2 mps 747 mmHg 90%
    03:00 -10°C° 0 mm 3 mps 746 mmHg 89%
    04:00 -10°C° 0 mm 4 mps 746 mmHg 88%
    05:00 -10°C° 0 mm 4 mps 745 mmHg 86%
    06:00 -11°C° 0 mm 5 mps 745 mmHg 84%
    07:00 -10°C° 0 mm 5 mps 744 mmHg 81%
    08:00 -10°C° 0 mm 6 mps 744 mmHg 78%
    09:00 -8°C° 0 mm 6 mps 743 mmHg 76%
    10:00 -6°C° 0 mm 6 mps 743 mmHg 73%
    11:00 -5°C° 0 mm 6 mps 742 mmHg 71%
    12:00 -4°C° 0 mm 6 mps 742 mmHg 72%
    13:00 -3°C° 0 mm 6 mps 741 mmHg 73%
    14:00 -2°C° 0 mm 6 mps 741 mmHg 75%
    15:00 -2°C° 0 mm 5 mps 740 mmHg 76%
    16:00 -4°C° 0 mm 5 mps 740 mmHg 77%
    17:00 -4°C° 0 mm 5 mps 739 mmHg 78%
    18:00 -4°C° 0 mm 5 mps 739 mmHg 80%
    19:00 -5°C° 0 mm 6 mps 738 mmHg 82%
    20:00 -5°C° 0 mm 6 mps 737 mmHg 84%
    21:00 -4°C° 0 mm 6 mps 737 mmHg 86%
    22:00 -4°C° 0 mm 6 mps 736 mmHg 87%
    23:00 -3°C° 0 mm 6 mps 735 mmHg 89%

    Tomorrow, 20 February, Wednesday

    Time Temperature Precipitation Wind Pressure Humidity
    00:00 -3°C° 0 mm 6 mps 735 mmHg 89%
    01:00 -3°C° 0 mm 6 mps 734 mmHg 88%
    02:00 -2°C° 0 mm 6 mps 733 mmHg 88%
    03:00 -2°C° 0.1 mm 6 mps 733 mmHg 89%
    04:00 -2°C° 0.1 mm 6 mps 732 mmHg 90%
    05:00 -1°C° 0.1 mm 5 mps 732 mmHg 90%
    06:00 -1°C° 0.1 mm 5 mps 731 mmHg 91%
    07:00 -1°C° 0.1 mm 5 mps 731 mmHg 91%
    08:00 -1°C° 0.1 mm 5 mps 731 mmHg 92%
    09:00 0°C° 0 mm 5 mps 731 mmHg 92%
    10:00 0°C° 0 mm 5 mps 731 mmHg 93%
    11:00 0°C° 0 mm 5 mps 731 mmHg 94%
    12:00 0°C° 0 mm 5 mps 731 mmHg 93%
    13:00 0°C° 0 mm 5 mps 731 mmHg 93%
    14:00 0°C° 0 mm 5 mps 731 mmHg 92%
    15:00 0°C° 0 mm 5 mps 731 mmHg 92%
    16:00 0°C° 0 mm 4 mps 730 mmHg 91%
    17:00 -1°C° 0 mm 4 mps 730 mmHg 90%
    18:00 -1°C° 0 mm 4 mps 730 mmHg 90%
    19:00 -1°C° 0 mm 5 mps 730 mmHg 90%
    20:00 -1°C° 0 mm 5 mps 729 mmHg 90%
    21:00 -1°C° 0.2 mm 4 mps 729 mmHg 90%
    22:00 -1°C° 0.2 mm 4 mps 729 mmHg 90%
    23:00 -1°C° 0.2 mm 4 mps 729 mmHg 91%

    Day after tomorrow, 21 February, Thursday

    Time Temperature Precipitation Wind Pressure Humidity
    00:00 -2°C° 0 mm 4 mps 729 mmHg 90%
    01:00 -3°C° 0 mm 4 mps 729 mmHg 90%
    02:00 -3°C° 0 mm 4 mps 729 mmHg 90%
    03:00 -3°C° 0.1 mm 4 mps 729 mmHg 90%
    04:00 -3°C° 0.1 mm 4 mps 729 mmHg 90%
    05:00 -3°C° 0.1 mm 4 mps 729 mmHg 90%
    06:00 -5°C° 0.3 mm 5 mps 730 mmHg 89%
    07:00 -5°C° 0.3 mm 6 mps 730 mmHg 87%
    08:00 -6°C° 0.3 mm 6 mps 730 mmHg 86%
    09:00 -6°C° 0.3 mm 6 mps 731 mmHg 85%
    10:00 -6°C° 0.3 mm 6 mps 731 mmHg 84%
    11:00 -6°C° 0.3 mm 6 mps 732 mmHg 83%
    12:00 -6°C° 0.2 mm 6 mps 732 mmHg 84%
    13:00 -6°C° 0.2 mm 6 mps 733 mmHg 84%
    14:00 -7°C° 0.2 mm 7 mps 734 mmHg 84%
    15:00 -8°C° 0.2 mm 7 mps 735 mmHg 84%
    16:00 -9°C° 0.2 mm 7 mps 736 mmHg 83%
    17:00 -9°C° 0.2 mm 7 mps 736 mmHg 82%
    18:00 -11°C° 0.1 mm 7 mps 737 mmHg 82%
    19:00 -12°C° 0.1 mm 7 mps 738 mmHg 81%
    20:00 -12°C° 0.1 mm 7 mps 739 mmHg 80%
    21:00 -13°C° 0 mm 7 mps 740 mmHg 80%
    22:00 -13°C° 0 mm 7 mps 741 mmHg 79%
    23:00 -14°C° 0 mm 7 mps 742 mmHg 78%

    22 February, Friday

    Time Temperature Precipitation Wind Pressure Humidity
    00:00 -14°C° 0 mm 7 mps 742 mmHg 78%
    01:00 -15°C° 0 mm 7 mps 743 mmHg 78%
    02:00 -15°C° 0 mm 7 mps 743 mmHg 78%
    03:00 -17°C° 0 mm 7 mps 744 mmHg 78%
    04:00 -17°C° 0 mm 7 mps 744 mmHg 78%
    05:00 -17°C° 0 mm 7 mps 745 mmHg 78%
    06:00 -17°C° 0 mm 7 mps 745 mmHg 77%
    07:00 -16°C° 0 mm 6 mps 746 mmHg 76%
    08:00 -16°C° 0 mm 6 mps 747 mmHg 75%
    09:00 -15°C° 0 mm 7 mps 747 mmHg 73%
    10:00 -15°C° 0 mm 7 mps 747 mmHg 72%
    11:00 -14°C° 0 mm 7 mps 747 mmHg 70%
    12:00 -13°C° 0 mm 7 mps 747 mmHg 70%
    13:00 -13°C° 0 mm 7 mps 747 mmHg 71%
    14:00 -13°C° 0 mm 7 mps 747 mmHg 71%
    15:00 -13°C° 0 mm 7 mps 747 mmHg 73%
    16:00 -14°C° 0 mm 7 mps 748 mmHg 74%
    17:00 -15°C° 0 mm 6 mps 748 mmHg 76%
    18:00 -15°C° 0 mm 6 mps 749 mmHg 76%
    19:00 -15°C° 0 mm 6 mps 749 mmHg 77%
    20:00 -17°C° 0 mm 7 mps 750 mmHg 77%
    21:00 -16°C° 0 mm 6 mps 750 mmHg 78%
    22:00 -16°C° 0 mm 6 mps 751 mmHg 79%
    23:00 -17°C° 0 mm 6 mps 751 mmHg 80%

    23 February, Saturday

    Time Temperature Precipitation Wind Pressure Humidity
    00:00 -17°C° 0 mm 6 mps 752 mmHg 81%
    01:00 -17°C° 0 mm 5 mps 752 mmHg 82%
    02:00 -17°C° 0 mm 5 mps 753 mmHg 83%
    03:00 -17°C° 0 mm 5 mps 753 mmHg 83%
    04:00 -17°C° 0 mm 5 mps 753 mmHg 84%
    05:00 -16°C° 0 mm 4 mps 753 mmHg 85%
    06:00 -16°C° 0 mm 4 mps 753 mmHg 86%
    07:00 -17°C° 0 mm 4 mps 754 mmHg 86%
    08:00 -17°C° 0 mm 4 mps 754 mmHg 87%
    09:00 -16°C° 0 mm 4 mps 754 mmHg 85%
    10:00 -15°C° 0 mm 4 mps 754 mmHg 83%
    11:00 -15°C° 0 mm 4 mps 755 mmHg 81%
    12:00 -14°C° 0 mm 4 mps 754 mmHg 79%
    13:00 -12°C° 0 mm 4 mps 754 mmHg 77%
    14:00 -12°C° 0 mm 4 mps 754 mmHg 75%
    15:00 -12°C° 0 mm 3 mps 755 mmHg 78%
    16:00 -13°C° 0 mm 3 mps 755 mmHg 82%
    17:00 -13°C° 0 mm 2 mps 755 mmHg 85%
    18:00 -13°C° 0 mm 2 mps 755 mmHg 86%
    19:00 -13°C° 0 mm 2 mps 756 mmHg 88%
    20:00 -13°C° 0 mm 2 mps 756 mmHg 89%
    21:00 -13°C° 0 mm 2 mps 756 mmHg 89%
    22:00 -13°C° 0 mm 2 mps 756 mmHg 90%
    23:00 -11°C° 0 mm 1 mps 757 mmHg 90%

    24 February, Sunday

    Time Temperature Precipitation Wind Pressure Humidity
    00:00 -11°C° 0 mm 1 mps 757 mmHg 89%
    01:00 -11°C° 0 mm 1 mps 757 mmHg 88%
    02:00 -12°C° 0 mm 1 mps 757 mmHg 88%
    03:00 -12°C° 0 mm 1 mps 757 mmHg 86%
    04:00 -12°C° 0 mm 1 mps 757 mmHg 85%
    05:00 -14°C° 0 mm 2 mps 757 mmHg 84%
    06:00 -13°C° 0 mm 2 mps 757 mmHg 84%
    07:00 -13°C° 0 mm 2 mps 757 mmHg 83%
    08:00 -12°C° 0 mm 2 mps 757 mmHg 83%
    09:00 -10°C° 0 mm 2 mps 757 mmHg 83%
    10:00 -8°C° 0 mm 2 mps 757 mmHg 84%
    11:00 -7°C° 0 mm 2 mps 757 mmHg 84%
    12:00 -6°C° 0 mm 2 mps 757 mmHg 85%
    13:00 -7°C° 0 mm 3 mps 756 mmHg 85%
    14:00 -6°C° 0 mm 3 mps 756 mmHg 86%
    15:00 -5°C° 0 mm 2 mps 756 mmHg 88%
    16:00 -5°C° 0 mm 2 mps 755 mmHg 90%
    17:00 -5°C° 0 mm 2 mps 755 mmHg 92%
    18:00 -5°C° 0 mm 2 mps 755 mmHg 92%
    19:00 -6°C° 0 mm 3 mps 755 mmHg 93%
    20:00 -6°C° 0 mm 3 mps 754 mmHg 93%
    21:00 -6°C° 0 mm 3 mps 754 mmHg 93%
    22:00 -7°C° 0 mm 4 mps 753 mmHg 94%
    23:00 -7°C° 0 mm 4 mps 753 mmHg 94%
    Show more